Location: Palomar Mountain Lodge
(33.3110°N, 116.8495°W)
Time: 13:39:31
(UTC-07:00)

Cosmos 1809 Rocket - Pass Details

Date: 12 July 2018
Orbit: 941 x 963 km, 82.5° (Epoch: 22 July)

Event Time Altitude Azimuth Distance (km) Brightness Sun altitude
Rises 21:28:59 0° 356° (N) 3,624 8.2 -16.5°
Reaches altitude 10° 21:31:30 10° 360° (N) 2,678 7.4 -16.9°
Maximum altitude 21:37:36 67° 82° (E) 1,028 4.4 -17.8°
Enters shadow 21:41:08 26° 159° (SSE) 1,766 5.3 -18.3°
